Home   Weather   Napa   Past weeks

Flag for USA Past Weather in Napa, California, USA — Yesterday and Last 2 Weeks

Now
83 °F

Sunny.


Feels Like: 82 °F
Forecast: 56 / 92 °F
Wind: N/A

Location: Napa County Airport

Current Time: Jul 27, 2017 at 4:04:24 pm

Latest Report: Jul 27, 2017 at 2:54 pm


Visibility: 10 mi

Pressure: 29.89 "Hg

Humidity: 41%

Dew Point: 57 °F

Location of NapaLocation

Past Weather in Napa — Graph

°F

Napa Temperature Yesterday

Maximum temperature yesterday: 81 °F (at 2:54 pm)
Minimum temperature yesterday: 58 °F (at 12:54 am)
Average temperature yesterday: 68 °F

High & Low Weather Summary for the Past Weeks

 TemperatureHumidityPressure
High98 °F (Jul 16, 3:54 pm)93% (Jul 19, 6:15 am)30.05 "Hg (Jul 19, 6:15 am)
Low52 °F (Jul 18, 5:54 am)16% (Jul 16, 5:54 pm)29.74 "Hg (Jul 23, 5:54 pm)
Average68 °F66%29.91 "Hg
* Reported Jul 12 2:54 pm — Jul 27 2:54 pm, Napa. Weather by CustomWeather, © 2017

Note: Actual official high and low records may vary slightly from our data, if they occured in-between our weather recording intervals... More about our weather records

Advertising

Napa Weather History for the Previous 24 Hours

Scroll right to see more
 ConditionsComfort  
Time TempWeatherWind HumidityBarometerVisibility
2:54 pm
Thu, Jul 27
83 °FSunny.N/A41%29.89 "Hg10 mi
1:54 pm82 °FSunny.7 mph44%29.91 "HgN/A
12:54 pm75 °FSunny.5 mph54%29.93 "HgN/A
11:54 am73 °FSunny.6 mph53%29.96 "Hg10 mi
10:54 am69 °FSunny.8 mph59%29.97 "Hg10 mi
9:54 am66 °FSunny.8 mph70%29.97 "Hg10 mi
9:15 am63 °FScattered clouds.7 mph75%30.00 "Hg10 mi
8:54 am62 °FPartly sunny.8 mph78%29.98 "Hg10 mi
8:41 am62 °FPartly sunny.7 mph78%30.00 "Hg10 mi
7:54 am59 °FPartly sunny.3 mph84%29.97 "Hg10 mi
6:54 am56 °FPassing clouds.3 mph87%29.96 "Hg10 mi
6:42 am55 °FPassing clouds.3 mph90%29.99 "Hg10 mi
6:10 am56 °FPartly sunny.6 mph87%29.99 "Hg9 mi
5:54 am56 °FPassing clouds.3 mph87%29.96 "Hg9 mi
5:26 am57 °FPassing clouds.No wind87%29.98 "Hg10 mi
4:54 am58 °FLight rain. Low clouds.6 mph87%29.95 "Hg10 mi
4:19 am57 °FPassing clouds.3 mph87%29.98 "Hg10 mi
4:05 am56 °FPassing clouds.3 mph87%29.98 "Hg10 mi
2:54 am56 °FClear.5 mph87%29.95 "Hg10 mi
1:54 am57 °FClear.5 mph83%29.96 "Hg10 mi
12:54 am58 °FPassing clouds.6 mph84%29.96 "Hg10 mi
12:32 am58 °FPassing clouds.6 mph81%29.99 "Hg10 mi
11:54 pm
Wed, Jul 26
60 °FClear.7 mph78%29.96 "Hg10 mi
10:54 pm62 °FClear.12 mph70%29.95 "Hg10 mi
9:54 pm61 °FClear.No wind78%29.95 "Hg10 mi
8:54 pm66 °FClear.5 mph68%29.93 "Hg10 mi
7:54 pm72 °FLight rain. Sunny.8 mph61%29.92 "Hg10 mi
6:54 pm74 °FSunny.14 mph57%29.92 "Hg10 mi
5:54 pm77 °FSunny.15 mph50%29.92 "Hg10 mi
4:54 pm80 °FSunny.15 mph44%29.93 "Hg10 mi
Weather by CustomWeather, © 2017

See weather overviewHow to use our weather pages